Location: Lezzeno
(45.9333°N, 9.1833°E)
Time: 05:19:17
(UTC+00:00)

Daily predictions for brighter satellites

Satellite Brightness Start Highest point End
(mag) Time Altitude Azimuth Time Altitude Azimuth Time Altitude Azimuth
Cosmos 2322 Rocket 4.4 00:01:12 10° WNW 00:02:51 13° W 00:02:51 13° W
SL-16 R/B 4.3 00:03:55 10° N 00:08:29 24° NE 00:13:00 10° E
Cosmos 1025 Rocket 3.8 00:08:41 10° N 00:12:13 49° NE 00:12:13 49° NE
CZ-4 R/B 4.0 00:09:37 10° N 00:14:24 71° NW 00:14:24 71° NW
NOSS 0 Rocket 3.9 00:08:32 10° NNW 00:14:49 84° ENE 00:15:54 63° SE
CZ-2D R/B 3.4 00:10:58 10° NE 00:15:43 29° E 00:16:30 28° ESE
Lacrosse 4 Rocket 2.8 00:17:22 33° NW 00:17:22 33° NW 00:21:01 10° NNE
COSMOS 2428 2.9 00:11:42 10° NNW 00:16:52 56° W 00:16:52 56° W
GEOS 3 Rocket 3.8 00:12:50 10° NE 00:18:01 59° ESE 00:18:01 59° ESE
ADEOS II 4.5 00:16:26 10° ENE 00:18:31 12° E 00:20:29 10° ESE
Cosmos 2360 Rocket 4.0 00:15:04 10° WNW 00:17:41 18° W 00:17:41 18° W
Cosmos 1503 Rocket 4.3 00:21:18 55° WNW 00:21:35 56° WNW 00:26:53 10° NNE
Cosmos 2026 Rocket 4.4 00:22:09 10° N 00:28:08 56° ENE 00:29:55 42° SE
Cosmos 1536 Rocket 4.0 00:24:25 10° N 00:28:12 59° NE 00:28:12 59° NE
Cosmos 2297 Rocket 2.6 00:30:52 49° ESE 00:31:13 49° ESE 00:36:39 10° NE
Cosmos 1634 Rocket 4.3 00:31:21 47° SE 00:32:44 58° E 00:38:49 10° NNE
Cosmos 2219 3.3 00:32:41 58° SE 00:33:00 59° ESE 00:38:32 10° NNE
Cosmos 1980 3.6 00:28:16 10° NNW 00:33:59 84° ENE 00:34:48 66° SE
Cosmos 1464 Rocket 4.4 00:34:33 44° W 00:35:29 47° WNW 00:41:29 10° N
Cosmos 2333 Rocket 3.3 00:31:34 10° NW 00:35:43 31° W 00:35:43 31° W
MOZ.5/SAFIR/RUBIN 5/SL-8 3.9 00:38:18 70° E 00:38:31 71° ENE 00:43:15 10° N
Cosmos 1626 4.5 00:38:33 10° NNE 00:41:10 18° ENE 00:42:04 17° E
Cosmos 2237 Rocket 2.1 00:38:04 10° NNW 00:43:46 88° WSW 00:44:32 69° SSE
Helios 1B rocket 3.7 00:50:16 10° N 00:53:28 32° NW 00:53:28 32° NW
Nadezhda 4 Rocket 4.5 00:52:24 10° NNW 00:58:17 43° W 00:58:57 41° WSW
CZ-4C R/B 4.0 01:00:00 47° NNE 01:00:00 47° NNE 01:02:43 10° N
Cosmos 1538 Rocket 3.8 00:54:30 10° NNW 00:59:42 77° WSW 00:59:58 74° SW
ATLAS 3B R/B 4.2 00:54:42 12° W 00:59:52 29° NNW 01:05:35 10° NNE
In-Cosmos 22 4.1 00:55:12 10° NNW 01:00:44 62° W 01:01:07 60° WSW
Okean 2 Rocket 3.9 01:02:15 39° WNW 01:02:15 39° WNW 01:06:11 10° N
SL-16 R/B 2.5 00:59:59 45° SSE 01:02:07 89° ENE 01:08:25 10° NNW
USA 215 3.7 00:59:06 10° ENE 01:05:19 44° SE 01:06:48 38° SSE
Cosmos 1428 Rocket 4.4 01:00:39 10° N 01:06:56 82° W 01:08:43 50° S
Cosmos 1092 Rocket 4.1 01:05:33 10° NNW 01:11:36 54° W 01:12:41 48° SW
Cosmos 1805 3.4 01:13:32 71° NE 01:13:32 71° NE 01:17:07 10° NNE
Resurs 1-4 Rocket 2.0 01:08:04 10° NNE 01:13:23 87° ESE 01:14:25 60° S
SL-14 R/B 4.2 01:14:45 10° N 01:18:32 42° ENE 01:19:22 37° ESE
Okean 1 Rocket 2.9 01:18:56 78° W 01:19:01 79° W 01:23:23 10° N
Uosat 12 SS-18 rocket 4.3 01:18:27 60° WSW 01:19:09 71° NW 01:23:39 10° NNE
Meteor 1-15 Rocket 4.2 01:17:58 55° SSW 01:19:13 76° WNW 01:24:51 10° N
Cosmos 2227 Rocket 2.1 01:19:04 55° SW 01:20:23 83° WNW 01:26:06 10° NNE
Cosmos 1674 3.4 01:18:51 10° NNW 01:21:38 44° NW 01:21:38 44° NW
IKONOS-2 4.3 01:23:39 80° SW 01:23:48 82° WSW 01:28:04 10° NNW
Cosmos 1655 Rocket 4.3 01:17:47 10° N 01:24:03 64° ENE 01:28:01 23° SSE
Cosmos 1733 3.1 01:27:32 79° E 01:27:32 79° E 01:31:21 10° NNE
UNK 3.8 01:27:34 56° WSW 01:27:42 56° W 01:32:20 10° NNW
AQUA 3.8 01:22:59 10° NNE 01:27:46 81° ESE 01:28:45 56° S
CBERS-1 4.3 01:27:21 10° NNE 01:32:25 59° E 01:34:16 37° SSE
NOSS 3-1 (C) 4.0 01:33:35 31° SSE 01:35:29 41° ESE 01:41:12 10° NE
Cosmos 1898 Rocket 4.1 01:35:45 32° SSE 01:37:45 49° ESE 01:42:47 10° NNE
Cosmos 2219 Rocket 4.4 01:36:13 10° WNW 01:36:25 10° W 01:36:25 10° W
USA 267 3.9 01:31:39 10° E 01:37:59 55° NNE 01:44:20 10° NW
ARIANE 5 R/B 3.9 01:34:36 10° NNE 01:39:20 33° E 01:42:41 17° SSE
SJ 16-02 1.3 01:40:06 59° S 01:40:54 85° ESE 01:45:20 10° NNE
Meteor 2-19 Rocket 4.4 01:34:53 10° N 01:41:06 88° E 01:44:42 27° S
ATLAS 3B CENTAUR R/B 4.4 01:40:21 28° SSW 01:41:17 29° SSW 01:48:04 10° SE
Cosmos 2082 3.6 01:39:45 44° SSW 01:41:38 85° ESE 01:47:17 10° NNE
Cosmos 1680 Rocket 3.4 01:37:19 10° NNW 01:42:35 86° ENE 01:45:53 23° SSE
Cosmos 1726 4.5 01:41:51 12° SE 01:44:03 19° E 01:46:42 10° NE
Cosmos 990 Rocket 4.2 01:44:13 37° S 01:46:11 63° ESE 01:51:19 10° NNE
IDEFIX/ARIANE 42P 4.3 01:44:15 10° NE 01:48:39 27° E 01:53:02 10° SSE
DNEPR-1 R/B 4.0 01:43:22 10° NW 01:48:52 51° WSW 01:49:47 45° SSW
Cosmos 1340 Rocket 3.7 01:48:30 29° SE 01:49:59 43° E 01:53:45 10° NNE
Cosmos 1455 Rocket 3.2 01:51:23 39° SSE 01:52:56 71° E 01:57:23 10° NNE
SL-16 R/B 2.1 01:47:28 10° NNW 01:53:08 69° WSW 01:56:45 23° S
Cosmos 1461 3.1 01:52:47 48° S 01:53:51 68° ESE 01:58:23 10° NE
SL-08 R/B 3.9 01:49:37 12° SSE 01:54:04 61° ENE 01:58:58 10° N
SL-4 R/B 1.4 01:54:33 74° SE 01:54:33 74° SE 01:57:41 10° ESE
CZ-2D R/B 2.8 01:50:43 10° N 01:55:54 44° WNW 01:57:49 32° WSW
Meteor 1-24 Rocket 3.6 01:50:58 10° NNW 01:56:25 68° W 01:58:48 33° S
IRS-1D 3.4 01:51:21 10° NNE 01:56:25 83° WNW 01:58:30 37° SSW
NPP 4.0 01:52:10 10° N 01:57:22 49° WNW 01:59:17 34° WSW
Cosmos 1953 4.2 01:55:00 13° SE 01:57:54 26° E 02:01:17 10° NNE
ADEOS II 2.0 01:53:40 10° NNE 01:58:58 88° ESE 02:01:26 33° SSW
Cosmos 1892 Rocket 3.5 01:57:08 10° NNW 02:01:34 67° W 02:03:00 41° SSW
CZ-4B R/B 3.4 01:57:28 10° N 02:02:12 64° WNW 02:03:51 39° SW
Meteor 2-5 Rocket 4.1 01:58:48 10° NNW 02:04:08 45° W 02:05:59 33° SW
USA 229 DEB 3.8 02:05:21 27° SSW 02:09:02 63° ESE 02:15:47 10° NE
USA 229 3.8 02:05:27 27° SSW 02:09:07 63° ESE 02:15:50 10° NE
Cosmos 2279 Rocket 4.5 02:09:05 29° SW 02:11:42 43° WNW 02:17:36 10° N
Cosmos 2263 Rocket 3.2 02:07:56 16° SSE 02:11:57 39° ESE 02:17:04 10° NE
Cosmos 923 Rocket 4.5 02:07:55 10° NW 02:12:55 41° WSW 02:14:41 31° SW
Cosmos 158 Rocket 4.2 02:07:49 10° NNW 02:13:03 53° WSW 02:16:10 24° S
IRS-1C 4.1 02:07:55 10° NNE 02:13:18 85° ESE 02:16:32 25° SSW
Cosmos 2297 Rocket 3.4 02:12:41 20° W 02:15:29 30° NW 02:20:28 10° N
Cosmos 1626 2.9 02:13:10 10° NNW 02:16:31 33° W 02:16:34 33° W
NOSS 2-3 (C) 4.4 02:17:45 24° S 02:19:56 43° ESE 02:24:33 10° NE
NOSS 3-1 (A) 3.8 02:16:55 22° S 02:20:16 52° ESE 02:26:18 10° NE
Cosmos 2098 Rocket 3.6 02:15:46 10° NNW 02:20:37 64° W 02:25:09 18° S
Meteor 1-28 Rocket 3.1 02:20:45 24° S 02:22:58 79° W 02:26:48 10° NNW
Cosmos 2237 Rocket 4.0 02:24:19 10° WNW 02:26:17 13° W 02:26:17 13° W
H-2A R/B 3.1 02:26:02 10° SE 02:29:57 45° ENE 02:33:52 10° N
Timation 1 Rocket 4.3 02:26:52 22° SSW 02:30:50 84° ESE 02:36:50 10° NNE
Cosmos 1603 4.0 02:27:05 10° NNW 02:32:51 73° ENE 02:38:32 10° SSE
Cosmos 1470 3.1 02:32:06 30° SW 02:33:39 48° WNW 02:37:32 10° N
Cosmos 858 Rocket 4.5 02:30:34 24° SSW 02:33:50 77° WNW 02:39:09 10° NNE
SeaSat 1 3.8 02:35:04 10° NE 02:39:36 35° ESE 02:44:05 10° S
Cosmos 1544 Rocket 3.8 02:37:11 24° SW 02:39:38 54° WNW 02:44:02 10° N
Spot 4 Rocket 4.0 02:39:54 10° NNE 02:45:06 87° ESE 02:49:45 13° SSW
SL-16 R/B 4.1 02:45:05 15° WSW 02:46:31 16° W 02:50:13 10° NW
USA 215 3.5 02:42:02 10° NE 02:48:32 67° NNW 02:54:08 14° WSW
FALCON 9 DEB 3.1 02:45:25 10° WNW 02:48:52 63° SW 02:52:17 10° SE
Resurs 1-4 Rocket 4.0 02:49:28 10° NNW 02:52:29 16° WNW 02:55:29 10° W
Cosmos 1553 Rocket 4.4 02:48:22 10° S 02:54:18 62° E 03:00:19 10° NNE
Cosmos 1943 3.2 02:53:21 10° NNW 02:59:00 86° WSW 03:04:38 10° SSE
Cosmos 1602 Rocket 3.5 02:54:49 10° NNW 02:59:08 62° W 03:03:24 10° S
Cosmos 2227 Rocket 4.1 03:01:35 10° W 03:05:21 18° NW 03:09:07 10° N
Meteor 2-21 Rocket 4.4 03:00:21 10° NNW 03:06:21 68° W 03:12:21 10° S
Meteor 2-16 Rocket 4.4 03:02:49 10° NNW 03:09:00 77° W 03:15:08 10° S
Meteor 1-21 Rocket 4.4 03:07:10 10° NNW 03:12:32 51° W 03:17:52 10° S
Cosmos 1937 Rocket 4.3 03:09:43 14° WSW 03:13:51 37° WNW 03:18:49 10° N
ERS-2 2.0 03:10:52 10° S 03:14:29 71° WSW 03:18:08 10° NNW
MSX 3.8 03:10:12 10° NNE 03:15:59 80° WNW 03:21:45 10° SSW
CZ-2C R/B 2.9 03:13:13 10° N 03:17:03 60° WNW 03:20:48 10° SSW
Cosmos 2227 4.4 03:12:17 12° SW 03:17:35 62° WNW 03:23:20 10° NNE
Cosmos 2150 Rocket 4.1 03:12:51 10° SSW 03:18:01 84° ESE 03:23:16 10° NNE
NOSS 2-3 (E) 3.9 03:14:35 13° SW 03:18:18 62° NW 03:23:22 10° NE
ARIANE 5 R/B 3.4 03:13:41 10° N 03:18:25 36° WNW 03:23:01 11° SW
Cosmos 1726 3.1 03:16:22 13° SW 03:19:03 29° WNW 03:22:20 10° NNW
Cosmos 1726 Rocket 4.3 03:15:25 10° S 03:19:45 55° E 03:24:08 10° NNE
SJ 16-02 3.5 03:18:04 10° W 03:20:08 13° NW 03:22:11 10° NNW
CZ-4B R/B 2.8 03:17:23 10° SE 03:20:30 40° ENE 03:23:32 10° N
USA 267 3.3 03:14:32 10° SE 03:20:58 59° SW 03:27:26 10° WNW
COSMOS 2441 4.3 03:16:52 10° N 03:21:41 76° WNW 03:26:29 10° SSW
S3M 4.3 03:15:30 10° S 03:21:50 74° E 03:28:15 10° NNE
Meteor 1-11 4.5 03:16:53 10° N 03:22:41 78° ENE 03:28:23 10° SSE
CZ-4C R/B 3.3 03:21:18 10° S 03:24:19 38° W 03:27:26 10° NNW
SL-08 R/B 4.5 03:18:13 10° NNW 03:24:24 75° W 03:30:37 10° S
NOSS 3-1 (C) 4.1 03:20:59 10° WSW 03:26:16 43° NW 03:32:30 10° NNE
IDEFIX/ARIANE 42P 3.1 03:23:30 10° N 03:28:24 43° WNW 03:33:17 10° SW
PSLV R/B 3.7 03:24:33 10° NNE 03:28:58 83° ESE 03:33:20 10° SSW
Cosmos 1908 3.4 03:26:51 10° SSW 03:30:41 56° WNW 03:34:33 10° N
Landsat 5 3.8 03:28:53 10° S 03:32:33 39° W 03:36:21 10° NNW
Meteor 1-16 Rocket 4.4 03:27:23 10° SSW 03:32:38 54° WNW 03:38:03 10° N
Cosmos 372 Rocket 4.3 03:28:14 10° SW 03:33:18 51° WNW 03:38:26 10° NNE
SL-4 R/B 3.3 03:31:35 10° WSW 03:33:20 13° SW 03:35:05 10° SSW
Cosmos 1953 3.6 03:30:51 10° SW 03:34:14 26° WNW 03:37:39 10° NNW
Cosmos 1356 Rocket 3.9 03:30:45 10° S 03:34:55 66° E 03:39:04 10° NNE
ATLAS CENTAUR R/B 2.2 03:31:04 10° SSW 03:35:06 47° ESE 03:38:55 10° NE
CZ-2C R/B 2.4 03:31:01 10° NNE 03:35:37 80° ESE 03:40:14 10° S
deb Chang Zheng 4 4.1 03:32:28 10° NNE 03:36:48 64° ESE 03:41:07 10° S
ADEOS II 4.0 03:34:58 10° NNW 03:37:56 15° WNW 03:40:52 10° W
NOSS 2-3 (D) 4.4 03:38:06 10° WSW 03:42:16 44° NW 03:47:12 10° NNE
Cosmos 1709 Rocket 4.5 03:38:37 10° N 03:44:49 67° E 03:50:54 10° SSE
ALOS 3.8 03:41:26 10° NNE 03:45:47 38° E 03:50:08 10° SSE
